FW2359 Weather Reports


Display with metric or nautical units.
time (UTC)temp
F
wind
direction
speed
MPH
gust
MPH
rain 1hr
in
rain 24hr
in
rain mn
in
humidity
%
barometer
mb
20260503001531 79 238 1.0 3.0 0.00 0.00 0.00 48 1011.5
20260503000032 77 251 1.0 3.0 0.00 0.00 0.00 50 1011.6
20260502234531 77 254 1.0 3.0 0.00 0.00 0.00 51 1011.8
20260502233032 76 261 2.0 3.0 0.00 0.00 0.00 49 1012.0
20260502231533 75 277 2.0 3.0 0.00 0.00 0.00 49 1012.2
20260502230033 75 259 3.0 4.0 0.00 0.00 0.00 50 1012.4
20260502224532 77 292 3.0 5.0 0.00 0.00 0.00 46 1012.6
20260502223032 77 294 4.0 7.0 0.00 0.00 0.00 47 1012.8
20260502221603 79 289 4.0 7.0 0.00 0.00 0.00 47 1013.1
20260502220145 78 259 3.0 7.0 0.00 0.00 0.00 50 1013.2
20260502211534 77 216 2.0 6.0 0.00 0.00 0.00 52 1013.9
20260502210030 75 225 2.0 6.0 0.00 0.00 0.00 54 1013.9
20260502204533 73 246 0.0 2.0 0.00 0.00 0.00 56 1014.1
20260502203030 71 221 4.0 8.0 0.00 0.00 0.00 61 1014.4
20260502201532 69 167 3.0 8.0 0.00 0.00 0.00 65 1014.5
20260502200031 66 92 1.0 6.0 0.00 0.00 0.00 66 1014.7
20260502194607 64 285 2.0 6.0 0.00 0.00 0.00 68 1015.1
20260502193032 61 276 4.0 9.0 0.00 0.00 0.00 72 1015.6
20260502191530 62 290 6.0 10.0 0.00 0.00 0.00 70 1015.8
20260502190107 63 282 4.0 8.0 0.00 0.00 0.00 69 1015.8
20260502184532 62 266 5.0 9.0 0.00 0.00 0.00 71 1016.0
20260502183031 61 267 4.0 8.0 0.00 0.00 0.00 73 1016.0
20260502181533 60 285 2.0 7.0 0.00 0.00 0.00 75 1015.9
20260502163030 53 260 8.0 15.0 0.00 0.00 0.00 86 1016.5
20260502161532 53 257 7.0 16.0 0.00 0.00 0.00 86 1016.6
20260502151532 52 240 7.0 15.0 0.00 0.00 0.00 87 1016.2
20260502121530 53 258 6.0 12.0 0.00 0.00 0.00 83 1014.8
20260502120147 53 253 6.0 13.0 0.00 0.00 0.00 82 1014.9
20260502114533 54 256 7.0 12.0 0.00 0.00 0.00 81 1014.9
20260502113032 55 223 6.0 18.0 0.00 0.00 0.00 81 1014.7
20260502111530 54 178 4.0 9.0 0.00 0.00 0.00 81 1014.7
20260502110041 54 189 4.0 10.0 0.00 0.00 0.00 82 1014.8
20260502104531 53 245 4.0 9.0 0.00 0.00 0.00 81 1015.4
20260502101532 55 242 6.0 11.0 0.00 0.00 0.00 78 1015.4
20260502091533 55 255 8.0 19.0 0.00 0.00 0.00 78 1015.6
20260502090107 55 234 7.0 15.0 0.00 0.00 0.00 78 1015.4
20260502080106 57 221 4.0 9.0 0.00 0.00 0.00 72 1015.4
20260502070031 61 252 6.0 15.0 0.00 0.00 0.00 65 1015.4
20260502064534 61 251 7.0 14.0 0.00 0.00 0.00 63 1015.4
20260502060031 63 226 5.0 11.0 0.00 0.00 0.00 60 1015.3
20260502054529 64 261 8.0 14.0 0.00 0.00 0.00 60 1015.1
20260502051531 63 251 5.0 11.0 0.00 0.00 0.00 59 1014.7
20260502050030 64 260 3.0 7.0 0.00 0.00 0.00 57 1014.8
20260502044530 65 231 6.0 15.0 0.00 0.00 0.00 57 1014.7
20260502043105 65 240 3.0 8.0 0.00 0.00 0.00 57 1014.6
20260502041535 66 235 6.0 14.0 0.00 0.00 0.00 56 1014.2
20260502040104 67 277 7.0 15.0 0.00 0.00 0.00 55 1013.9
20260502033041 66 252 4.0 14.0 0.00 0.00 0.00 55 1014.2
20260502031540 67 244 5.0 15.0 0.00 0.00 0.00 54 1013.9
20260502030029 68 237 6.0 18.0 0.00 0.00 0.00 53 1013.6
20260502024533 68 239 4.0 14.0 0.00 0.00 0.00 53 1013.1
20260502023146 69 250 6.0 13.0 0.00 0.00 0.00 53 1012.9
20260502021530 69 246 8.0 16.0 0.00 0.00 0.00 52 1012.9
20260502020031 70 249 8.0 17.0 0.00 0.00 0.00 51 1012.8
20260502014608 70 250 8.0 17.0 0.00 0.00 0.00 49 1012.7
20260502011606 73 251 7.0 14.0 0.00 0.00 0.00 44 1012.6
20260502010030 74 254 4.0 9.0 0.00 0.00 0.00 42 1012.6